contact:dominique.lefevre@mio.osupytheas.fr, maurice.libes@osupytheas.fr, didier.mallarino@osupytheas.fr
Project:EMSO http://www.emso-fr.org/EMSO-France
Depth: 2436.0 m
Title:EMSO Ligure Ouest : Data MII capteur MICROCAT
DateTime_Computer,Latitude,Longitude,Temperature,Conductivity,Pressure,DateTime_Instrument
DateTime_Computer,Latitude,Longitude,degC,S m-1,dbar,DateTime_Instrument
2020-09-19T00:01:08Z,42.805,6.029,13.2982,4.59979,2470.147,2020-9-19T02:02:00Z
2020-09-19T00:04:10Z,42.805,6.029,13.2980,4.59982,2470.156,2020-9-19T02:05:02Z
2020-09-19T00:07:14Z,42.805,6.029,13.2978,4.59980,2470.11,2020-9-19T02:08:06Z
2020-09-19T00:10:16Z,42.805,6.029,13.2982,4.59983,2470.124,2020-9-19T02:11:07Z
2020-09-19T00:13:19Z,42.805,6.029,13.2979,4.59981,2470.11,2020-9-19T02:14:11Z
2020-09-19T00:16:23Z,42.805,6.029,13.2979,4.59981,2470.11,2020-9-19T02:17:15Z
2020-09-19T00:19:26Z,42.805,6.029,13.2984,4.59979,2470.1,2020-9-19T02:20:17Z
2020-09-19T00:22:28Z,42.805,6.029,13.2981,4.59981,2470.11,2020-9-19T02:23:20Z
2020-09-19T00:25:29Z,42.805,6.029,13.2982,4.59981,2470.087,2020-9-19T02:26:21Z
2020-09-19T00:28:33Z,42.805,6.029,13.2981,4.59981,2470.087,2020-9-19T02:29:25Z
2020-09-19T00:31:36Z,42.805,6.029,13.2977,4.59979,2470.11,2020-9-19T02:32:28Z
2020-09-19T00:34:40Z,42.805,6.029,13.2981,4.59981,2470.133,2020-9-19T02:35:32Z
2020-09-19T00:37:43Z,42.805,6.029,13.2979,4.59981,2470.1,2020-9-19T02:38:35Z
2020-09-19T00:40:46Z,42.805,6.029,13.2979,4.59980,2470.11,2020-9-19T02:41:38Z
2020-09-19T00:43:47Z,42.805,6.029,13.2982,4.59980,2470.124,2020-9-19T02:44:39Z
2020-09-19T00:46:52Z,42.805,6.029,13.2979,4.59980,2470.11,2020-9-19T02:47:44Z
2020-09-19T00:49:55Z,42.805,6.029,13.2984,4.59982,2470.087,2020-9-19T02:50:47Z
2020-09-19T00:52:57Z,42.805,6.029,13.2979,4.59980,2470.087,2020-9-19T02:53:49Z
2020-09-19T00:56:01Z,42.805,6.029,13.2976,4.59979,2470.11,2020-9-19T02:56:53Z
2020-09-19T00:59:05Z,42.805,6.029,13.2981,4.59979,2470.077,2020-9-19T02:59:57Z
2020-09-19T01:02:08Z,42.805,6.029,13.2980,4.59980,2470.077,2020-9-19T03:03:00Z
2020-09-19T01:05:09Z,42.805,6.029,13.2981,4.59980,2470.063,2020-9-19T03:06:01Z
2020-09-19T01:08:14Z,42.805,6.029,13.2981,4.59980,2470.1,2020-9-19T03:09:06Z
2020-09-19T01:11:17Z,42.805,6.029,13.2982,4.59980,2470.077,2020-9-19T03:12:09Z
2020-09-19T01:14:20Z,42.805,6.029,13.2979,4.59980,2470.063,2020-9-19T03:15:12Z
2020-09-19T01:17:24Z,42.805,6.029,13.2981,4.59980,2470.063,2020-9-19T03:18:16Z
2020-09-19T01:20:28Z,42.805,6.029,13.2981,4.59981,2470.017,2020-9-19T03:21:20Z
2020-09-19T01:23:29Z,42.805,6.029,13.2982,4.59979,2470.087,2020-9-19T03:24:21Z
2020-09-19T01:26:30Z,42.805,6.029,13.2979,4.59980,2470.063,2020-9-19T03:27:22Z
2020-09-19T01:29:34Z,42.805,6.029,13.2979,4.59980,2470.04,2020-9-19T03:30:26Z
2020-09-19T01:32:37Z,42.805,6.029,13.2982,4.59979,2470.063,2020-9-19T03:33:29Z
2020-09-19T01:35:38Z,42.805,6.029,13.2980,4.59981,2470.04,2020-9-19T03:36:30Z
2020-09-19T01:38:43Z,42.805,6.029,13.2979,4.59980,2470.053,2020-9-19T03:39:35Z
2020-09-19T01:41:46Z,42.805,6.029,13.2981,4.59986,2470.04,2020-9-19T03:42:38Z
2020-09-19T01:44:50Z,42.805,6.029,13.2982,4.59981,2470.04,2020-9-19T03:45:42Z
2020-09-19T01:47:54Z,42.805,6.029,13.2979,4.59979,2470.04,2020-9-19T03:48:46Z
2020-09-19T01:50:56Z,42.805,6.029,13.2981,4.59979,2470.053,2020-9-19T03:51:47Z
2020-09-19T01:54:00Z,42.805,6.029,13.2979,4.59979,2470.04,2020-9-19T03:54:52Z
2020-09-19T01:57:05Z,42.805,6.029,13.2977,4.59979,2470.053,2020-9-19T03:57:57Z
2020-09-19T02:00:08Z,42.805,6.029,13.2979,4.59980,2470.03,2020-9-19T04:01:00Z
2020-09-19T02:03:11Z,42.805,6.029,13.2977,4.59980,2470.017,2020-9-19T04:04:03Z
2020-09-19T02:06:14Z,42.805,6.029,13.2979,4.59981,2470.03,2020-9-19T04:07:06Z
2020-09-19T02:09:16Z,42.805,6.029,13.2979,4.59981,2470.003,2020-9-19T04:10:08Z
2020-09-19T02:12:17Z,42.805,6.029,13.2977,4.59979,2470.007,2020-9-19T04:13:09Z
2020-09-19T02:15:19Z,42.805,6.029,13.2979,4.59981,2469.993,2020-9-19T04:16:11Z
2020-09-19T02:18:21Z,42.805,6.029,13.2977,4.59981,2470.04,2020-9-19T04:19:13Z
2020-09-19T02:21:26Z,42.805,6.029,13.2979,4.59979,2470.03,2020-9-19T04:22:18Z
2020-09-19T02:24:30Z,42.805,6.029,13.2978,4.59982,2470.007,2020-9-19T04:25:22Z
2020-09-19T02:27:34Z,42.805,6.029,13.2979,4.59982,2469.993,2020-9-19T04:28:26Z
2020-09-19T02:30:37Z,42.805,6.029,13.2980,4.59981,2470.04,2020-9-19T04:31:29Z
2020-09-19T02:33:40Z,42.805,6.029,13.2976,4.59979,2470.017,2020-9-19T04:34:32Z
2020-09-19T02:36:43Z,42.805,6.029,13.2982,4.59979,2469.97,2020-9-19T04:37:35Z
2020-09-19T02:39:48Z,42.805,6.029,13.2980,4.59981,2470.017,2020-9-19T04:40:40Z
2020-09-19T02:42:53Z,42.805,6.029,13.2979,4.59980,2469.993,2020-9-19T04:43:45Z
2020-09-19T02:45:56Z,42.805,6.029,13.2982,4.59982,2470.04,2020-9-19T04:46:48Z
2020-09-19T02:49:00Z,42.805,6.029,13.2981,4.59980,2470.017,2020-9-19T04:49:52Z
2020-09-19T02:52:03Z,42.805,6.029,13.2982,4.59980,2470.03,2020-9-19T04:52:55Z
2020-09-19T02:55:06Z,42.805,6.029,13.2977,4.59981,2470.017,2020-9-19T04:55:58Z
2020-09-19T02:58:09Z,42.805,6.029,13.2979,4.59979,2470.007,2020-9-19T04:59:01Z
2020-09-19T03:01:13Z,42.805,6.029,13.2982,4.59980,2470.017,2020-9-19T05:02:05Z
2020-09-19T03:04:16Z,42.805,6.029,13.2975,4.59980,2470.017,2020-9-19T05:05:08Z
2020-09-19T03:07:20Z,42.805,6.029,13.2979,4.59980,2470.017,2020-9-19T05:08:12Z
2020-09-19T03:10:23Z,42.805,6.029,13.2980,4.59980,2470.017,2020-9-19T05:11:15Z
2020-09-19T03:13:26Z,42.805,6.029,13.2982,4.59980,2470.017,2020-9-19T05:14:18Z
2020-09-19T03:16:28Z,42.805,6.029,13.2979,4.59980,2470.007,2020-9-19T05:17:20Z
2020-09-19T03:19:30Z,42.805,6.029,13.2982,4.59980,2470.007,2020-9-19T05:20:22Z
2020-09-19T03:22:35Z,42.805,6.029,13.2978,4.59980,2470.017,2020-9-19T05:23:27Z
2020-09-19T03:25:37Z,42.805,6.029,13.2979,4.59983,2470.017,2020-9-19T05:26:29Z
2020-09-19T03:28:42Z,42.805,6.029,13.2981,4.59981,2469.97,2020-9-19T05:29:33Z
2020-09-19T03:31:44Z,42.805,6.029,13.2981,4.59980,2470.03,2020-9-19T05:32:36Z
2020-09-19T03:34:49Z,42.805,6.029,13.2977,4.59980,2470.03,2020-9-19T05:35:41Z
2020-09-19T03:37:52Z,42.805,6.029,13.2981,4.59981,2470.04,2020-9-19T05:38:44Z
2020-09-19T03:40:56Z,42.805,6.029,13.2976,4.59978,2469.993,2020-9-19T05:41:48Z
2020-09-19T03:43:59Z,42.805,6.029,13.2978,4.59981,2470.017,2020-9-19T05:44:51Z
2020-09-19T03:47:02Z,42.805,6.029,13.2977,4.59981,2470.017,2020-9-19T05:47:54Z
2020-09-19T03:50:06Z,42.805,6.029,13.2977,4.59980,2469.993,2020-9-19T05:50:57Z
2020-09-19T03:53:09Z,42.805,6.029,13.2978,4.59981,2469.993,2020-9-19T05:54:01Z
2020-09-19T03:56:11Z,42.805,6.029,13.2980,4.59986,2470.017,2020-9-19T05:57:03Z
2020-09-19T03:59:15Z,42.805,6.029,13.2982,4.59981,2470.053,2020-9-19T06:00:07Z
2020-09-19T04:02:19Z,42.805,6.029,13.2980,4.59980,2470.017,2020-9-19T06:03:11Z
2020-09-19T04:05:21Z,42.805,6.029,13.2978,4.59980,2470.03,2020-9-19T06:06:13Z
2020-09-19T04:08:22Z,42.805,6.029,13.2977,4.59980,2470.03,2020-9-19T06:09:14Z
2020-09-19T04:11:27Z,42.805,6.029,13.2982,4.59981,2470.03,2020-9-19T06:12:19Z
2020-09-19T04:14:29Z,42.805,6.029,13.2978,4.59981,2470.063,2020-9-19T06:15:21Z
2020-09-19T04:17:31Z,42.805,6.029,13.2976,4.59981,2469.993,2020-9-19T06:18:23Z
2020-09-19T04:20:35Z,42.805,6.029,13.2979,4.59981,2470.063,2020-9-19T06:21:27Z
2020-09-19T04:23:37Z,42.805,6.029,13.2983,4.59979,2470.03,2020-9-19T06:24:28Z
2020-09-19T04:26:40Z,42.805,6.029,13.2978,4.59981,2470.053,2020-9-19T06:27:32Z
2020-09-19T04:29:45Z,42.805,6.029,13.2981,4.59981,2470.04,2020-9-19T06:30:37Z
2020-09-19T04:32:47Z,42.805,6.029,13.2976,4.59981,2470.04,2020-9-19T06:33:39Z
2020-09-19T04:35:52Z,42.805,6.029,13.2979,4.59980,2470.053,2020-9-19T06:36:44Z
2020-09-19T04:38:54Z,42.805,6.029,13.2974,4.59980,2470.053,2020-9-19T06:39:46Z
2020-09-19T04:41:58Z,42.805,6.029,13.2979,4.59980,2470.077,2020-9-19T06:42:50Z
2020-09-19T04:45:01Z,42.805,6.029,13.2979,4.59981,2470.077,2020-9-19T06:45:53Z
2020-09-19T04:48:03Z,42.805,6.029,13.2982,4.59981,2470.077,2020-9-19T06:48:55Z
2020-09-19T04:51:04Z,42.805,6.029,13.2979,4.59984,2470.053,2020-9-19T06:51:56Z
2020-09-19T04:54:07Z,42.805,6.029,13.2979,4.59981,2470.087,2020-9-19T06:54:59Z
2020-09-19T04:57:11Z,42.805,6.029,13.2980,4.59984,2470.063,2020-9-19T06:58:03Z
2020-09-19T05:00:15Z,42.805,6.029,13.2980,4.59985,2470.077,2020-9-19T07:01:07Z
2020-09-19T05:03:17Z,42.805,6.029,13.2978,4.59980,2470.1,2020-9-19T07:04:09Z
2020-09-19T05:06:19Z,42.805,6.029,13.2979,4.59983,2470.11,2020-9-19T07:07:11Z
2020-09-19T05:09:21Z,42.805,6.029,13.2988,4.59981,2470.087,2020-9-19T07:10:13Z
2020-09-19T05:12:26Z,42.805,6.029,13.2982,4.59982,2470.087,2020-9-19T07:13:18Z
2020-09-19T05:15:29Z,42.805,6.029,13.2983,4.59984,2470.077,2020-9-19T07:16:21Z
2020-09-19T05:18:33Z,42.805,6.029,13.2976,4.59986,2470.11,2020-9-19T07:19:25Z
2020-09-19T05:21:34Z,42.805,6.029,13.2979,4.59990,2470.11,2020-9-19T07:22:26Z
2020-09-19T05:24:37Z,42.805,6.029,13.2983,4.59981,2470.087,2020-9-19T07:25:29Z
2020-09-19T05:27:40Z,42.805,6.029,13.2980,4.59981,2470.124,2020-9-19T07:28:31Z
2020-09-19T05:30:44Z,42.805,6.029,13.2979,4.59983,2470.1,2020-9-19T07:31:35Z
2020-09-19T05:33:45Z,42.805,6.029,13.2981,4.59985,2470.124,2020-9-19T07:34:37Z
2020-09-19T05:36:48Z,42.805,6.029,13.2979,4.59985,2470.133,2020-9-19T07:37:40Z
2020-09-19T05:39:53Z,42.805,6.029,13.2976,4.59980,2470.11,2020-9-19T07:40:45Z
2020-09-19T05:42:57Z,42.805,6.029,13.2980,4.59981,2470.11,2020-9-19T07:43:49Z
2020-09-19T05:46:01Z,42.805,6.029,13.2978,4.59981,2470.11,2020-9-19T07:46:53Z
2020-09-19T05:49:04Z,42.805,6.029,13.2976,4.59981,2470.11,2020-9-19T07:49:56Z
2020-09-19T05:52:06Z,42.805,6.029,13.2981,4.59983,2470.133,2020-9-19T07:52:58Z
2020-09-19T05:55:09Z,42.805,6.029,13.2982,4.59981,2470.156,2020-9-19T07:56:01Z
2020-09-19T05:58:12Z,42.805,6.029,13.2979,4.59981,2470.147,2020-9-19T07:59:04Z
2020-09-19T06:01:16Z,42.805,6.029,13.2987,4.59982,2470.156,2020-9-19T08:02:08Z
2020-09-19T06:04:19Z,42.805,6.029,13.2980,4.59986,2470.18,2020-9-19T08:05:11Z
2020-09-19T06:07:23Z,42.805,6.029,13.2979,4.59983,2470.171,2020-9-19T08:08:15Z
2020-09-19T06:10:26Z,42.805,6.029,13.2981,4.59981,2470.18,2020-9-19T08:11:18Z
2020-09-19T06:13:27Z,42.805,6.029,13.2982,4.59983,2470.156,2020-9-19T08:14:19Z
2020-09-19T06:16:32Z,42.805,6.029,13.2979,4.59981,2470.194,2020-9-19T08:17:24Z
2020-09-19T06:19:33Z,42.805,6.029,13.2983,4.59983,2470.194,2020-9-19T08:20:25Z
2020-09-19T06:22:35Z,42.805,6.029,13.2982,4.59981,2470.18,2020-9-19T08:23:27Z
2020-09-19T06:25:40Z,42.805,6.029,13.2980,4.59988,2470.194,2020-9-19T08:26:31Z
2020-09-19T06:28:43Z,42.805,6.029,13.2980,4.59987,2470.18,2020-9-19T08:29:35Z
2020-09-19T06:31:47Z,42.805,6.029,13.2980,4.59982,2470.203,2020-9-19T08:32:39Z
2020-09-19T06:34:49Z,42.805,6.029,13.2979,4.59980,2470.217,2020-9-19T08:35:41Z
2020-09-19T06:37:51Z,42.805,6.029,13.2991,4.59982,2470.194,2020-9-19T08:38:43Z
2020-09-19T06:40:53Z,42.805,6.029,13.2976,4.59982,2470.156,2020-9-19T08:41:45Z
2020-09-19T06:43:57Z,42.805,6.029,13.2980,4.59982,2470.217,2020-9-19T08:44:49Z
2020-09-19T06:47:01Z,42.805,6.029,13.2977,4.59988,2470.217,2020-9-19T08:47:53Z
2020-09-19T06:50:05Z,42.805,6.029,13.2981,4.59982,2470.203,2020-9-19T08:50:57Z
2020-09-19T06:53:07Z,42.805,6.029,13.2980,4.59982,2470.203,2020-9-19T08:53:59Z
2020-09-19T06:56:11Z,42.805,6.029,13.2977,4.59981,2470.217,2020-9-19T08:57:03Z
2020-09-19T06:59:14Z,42.805,6.029,13.2979,4.59981,2470.18,2020-9-19T09:00:06Z
2020-09-19T07:02:17Z,42.805,6.029,13.2981,4.59981,2470.217,2020-9-19T09:03:09Z
2020-09-19T07:05:21Z,42.805,6.029,13.2978,4.59982,2470.203,2020-9-19T09:06:13Z
2020-09-19T07:08:24Z,42.805,6.029,13.2981,4.59984,2470.24,2020-9-19T09:09:16Z
2020-09-19T07:11:28Z,42.805,6.029,13.2980,4.59983,2470.203,2020-9-19T09:12:20Z
2020-09-19T07:14:32Z,42.805,6.029,13.2980,4.59988,2470.24,2020-9-19T09:15:24Z
2020-09-19T07:17:34Z,42.805,6.029,13.2979,4.59983,2470.227,2020-9-19T09:18:26Z
2020-09-19T07:20:35Z,42.805,6.029,13.2980,4.59982,2470.25,2020-9-19T09:21:27Z
2020-09-19T07:23:40Z,42.805,6.029,13.2982,4.59982,2470.264,2020-9-19T09:24:32Z
2020-09-19T07:26:42Z,42.805,6.029,13.2980,4.59983,2470.213,2020-9-19T09:27:34Z
2020-09-19T07:29:43Z,42.805,6.029,13.2978,4.59984,2470.25,2020-9-19T09:30:35Z
2020-09-19T07:32:46Z,42.805,6.029,13.2978,4.59981,2470.264,2020-9-19T09:33:38Z
2020-09-19T07:35:50Z,42.805,6.029,13.2979,4.59983,2470.227,2020-9-19T09:36:42Z
2020-09-19T07:38:52Z,42.805,6.029,13.2982,4.59983,2470.24,2020-9-19T09:39:44Z
2020-09-19T07:41:56Z,42.805,6.029,13.2977,4.59986,2470.25,2020-9-19T09:42:48Z
2020-09-19T07:44:58Z,42.805,6.029,13.2980,4.59986,2470.24,2020-9-19T09:45:50Z
2020-09-19T07:48:02Z,42.805,6.029,13.2981,4.59982,2470.227,2020-9-19T09:48:54Z
2020-09-19T07:51:05Z,42.805,6.029,13.2979,4.59984,2470.264,2020-9-19T09:51:57Z
2020-09-19T07:54:10Z,42.805,6.029,13.2980,4.59981,2470.25,2020-9-19T09:55:02Z
2020-09-19T07:57:12Z,42.805,6.029,13.2977,4.59984,2470.227,2020-9-19T09:58:04Z
2020-09-19T08:00:13Z,42.805,6.029,13.2980,4.59983,2470.25,2020-9-19T10:01:05Z
2020-09-19T08:03:16Z,42.805,6.029,13.2978,4.59983,2470.25,2020-9-19T10:04:08Z
2020-09-19T08:06:17Z,42.805,6.029,13.2976,4.59982,2470.273,2020-9-19T10:07:09Z
2020-09-19T08:09:20Z,42.805,6.029,13.2979,4.59982,2470.227,2020-9-19T10:10:12Z
2020-09-19T08:12:23Z,42.805,6.029,13.2974,4.59983,2470.25,2020-9-19T10:13:15Z
2020-09-19T08:15:26Z,42.805,6.029,13.2978,4.59986,2470.273,2020-9-19T10:16:18Z
2020-09-19T08:18:27Z,42.805,6.029,13.2980,4.59982,2470.287,2020-9-19T10:19:19Z
2020-09-19T08:21:31Z,42.805,6.029,13.2979,4.59983,2470.25,2020-9-19T10:22:23Z
2020-09-19T08:24:35Z,42.805,6.029,13.2976,4.59982,2470.24,2020-9-19T10:25:27Z
2020-09-19T08:27:39Z,42.805,6.029,13.2979,4.59984,2470.25,2020-9-19T10:28:31Z
2020-09-19T08:30:41Z,42.805,6.029,13.2982,4.59982,2470.273,2020-9-19T10:31:33Z
2020-09-19T08:33:46Z,42.805,6.029,13.2975,4.59982,2470.25,2020-9-19T10:34:38Z
2020-09-19T08:36:49Z,42.805,6.029,13.2980,4.59986,2470.25,2020-9-19T10:37:41Z
2020-09-19T08:39:54Z,42.805,6.029,13.2977,4.59986,2470.227,2020-9-19T10:40:46Z
2020-09-19T08:42:58Z,42.805,6.029,13.2976,4.59986,2470.25,2020-9-19T10:43:50Z
2020-09-19T08:46:01Z,42.805,6.029,13.2982,4.59983,2470.227,2020-9-19T10:46:53Z
2020-09-19T08:49:04Z,42.805,6.029,13.2974,4.59984,2470.25,2020-9-19T10:49:56Z
2020-09-19T08:52:08Z,42.805,6.029,13.2977,4.59983,2470.227,2020-9-19T10:53:00Z
2020-09-19T08:55:11Z,42.805,6.029,13.2983,4.59983,2470.227,2020-9-19T10:56:03Z
2020-09-19T08:58:16Z,42.805,6.029,13.2979,4.59982,2470.264,2020-9-19T10:59:08Z
2020-09-19T09:01:19Z,42.805,6.029,13.2978,4.59981,2470.203,2020-9-19T11:02:11Z
2020-09-19T09:04:25Z,42.805,6.029,13.2979,4.59982,2470.24,2020-9-19T11:05:16Z
2020-09-19T09:07:28Z,42.805,6.029,13.2980,4.59984,2470.25,2020-9-19T11:08:20Z
2020-09-19T09:10:29Z,42.805,6.029,13.2982,4.59981,2470.25,2020-9-19T11:11:21Z
2020-09-19T09:13:33Z,42.805,6.029,13.2986,4.59982,2470.203,2020-9-19T11:14:25Z
2020-09-19T09:16:38Z,42.805,6.029,13.2982,4.59982,2470.25,2020-9-19T11:17:30Z
2020-09-19T09:19:41Z,42.805,6.029,13.2976,4.59983,2470.24,2020-9-19T11:20:33Z
2020-09-19T09:22:43Z,42.805,6.029,13.2979,4.59981,2470.227,2020-9-19T11:23:35Z
2020-09-19T09:25:46Z,42.805,6.029,13.2978,4.59982,2470.189,2020-9-19T11:26:38Z
2020-09-19T09:28:51Z,42.805,6.029,13.2978,4.59981,2470.18,2020-9-19T11:29:43Z
2020-09-19T09:31:55Z,42.805,6.029,13.2979,4.59982,2470.227,2020-9-19T11:32:47Z
2020-09-19T09:35:00Z,42.805,6.029,13.2982,4.59981,2470.203,2020-9-19T11:35:52Z
2020-09-19T09:38:03Z,42.805,6.029,13.2979,4.59983,2470.24,2020-9-19T11:38:55Z
2020-09-19T09:41:05Z,42.805,6.029,13.2976,4.59983,2470.217,2020-9-19T11:41:57Z
2020-09-19T09:44:07Z,42.805,6.029,13.2977,4.59983,2470.24,2020-9-19T11:44:59Z
2020-09-19T09:47:09Z,42.805,6.029,13.2977,4.59981,2470.203,2020-9-19T11:48:01Z
2020-09-19T09:50:12Z,42.805,6.029,13.2978,4.59984,2470.217,2020-9-19T11:51:04Z
2020-09-19T09:53:16Z,42.805,6.029,13.2976,4.59981,2470.24,2020-9-19T11:54:08Z
2020-09-19T09:56:21Z,42.805,6.029,13.2980,4.59981,2470.203,2020-9-19T11:57:13Z
2020-09-19T09:59:24Z,42.805,6.029,13.2976,4.59981,2470.203,2020-9-19T12:00:16Z
2020-09-19T10:02:27Z,42.805,6.029,13.2979,4.59983,2470.203,2020-9-19T12:03:19Z
2020-09-19T10:05:28Z,42.805,6.029,13.2979,4.59981,2470.203,2020-9-19T12:06:20Z
2020-09-19T10:08:33Z,42.805,6.029,13.2979,4.59981,2470.18,2020-9-19T12:09:25Z
2020-09-19T10:11:37Z,42.805,6.029,13.2980,4.59980,2470.194,2020-9-19T12:12:29Z
2020-09-19T10:14:38Z,42.805,6.029,13.2980,4.59983,2470.171,2020-9-19T12:15:30Z
2020-09-19T10:17:43Z,42.805,6.029,13.2983,4.59981,2470.18,2020-9-19T12:18:35Z
2020-09-19T10:20:47Z,42.805,6.029,13.2978,4.59981,2470.194,2020-9-19T12:21:39Z
2020-09-19T10:23:49Z,42.805,6.029,13.2978,4.59984,2470.203,2020-9-19T12:24:41Z
2020-09-19T10:26:52Z,42.805,6.029,13.2980,4.59981,2470.147,2020-9-19T12:27:44Z
2020-09-19T10:29:54Z,42.805,6.029,13.2975,4.59983,2470.171,2020-9-19T12:30:46Z
2020-09-19T10:32:58Z,42.805,6.029,13.2977,4.59981,2470.194,2020-9-19T12:33:50Z
2020-09-19T10:36:02Z,42.805,6.029,13.2981,4.59981,2470.194,2020-9-19T12:36:54Z
2020-09-19T10:39:04Z,42.805,6.029,13.2976,4.59983,2470.203,2020-9-19T12:39:56Z
2020-09-19T10:42:08Z,42.805,6.029,13.2980,4.59985,2470.18,2020-9-19T12:43:00Z
2020-09-19T10:45:11Z,42.805,6.029,13.2979,4.59980,2470.18,2020-9-19T12:46:03Z
2020-09-19T10:48:16Z,42.805,6.029,13.2977,4.59981,2470.156,2020-9-19T12:49:08Z
2020-09-19T10:51:17Z,42.805,6.029,13.2977,4.59981,2470.171,2020-9-19T12:52:09Z
2020-09-19T10:54:20Z,42.805,6.029,13.2976,4.59981,2470.194,2020-9-19T12:55:12Z
2020-09-19T10:57:24Z,42.805,6.029,13.2979,4.59981,2470.18,2020-9-19T12:58:16Z
2020-09-19T11:00:27Z,42.805,6.029,13.2981,4.59983,2470.133,2020-9-19T13:01:19Z
2020-09-19T11:03:30Z,42.805,6.029,13.2982,4.59981,2470.156,2020-9-19T13:04:22Z
2020-09-19T11:06:33Z,42.805,6.029,13.2980,4.59982,2470.194,2020-9-19T13:07:25Z
2020-09-19T11:09:37Z,42.805,6.029,13.2976,4.59981,2470.156,2020-9-19T13:10:29Z
2020-09-19T11:12:39Z,42.805,6.029,13.2979,4.59980,2470.147,2020-9-19T13:13:31Z
2020-09-19T11:15:44Z,42.805,6.029,13.2979,4.59981,2470.133,2020-9-19T13:16:36Z
2020-09-19T11:18:48Z,42.805,6.029,13.2975,4.59981,2470.147,2020-9-19T13:19:40Z
2020-09-19T11:21:51Z,42.805,6.029,13.2979,4.59980,2470.133,2020-9-19T13:22:43Z
2020-09-19T11:24:53Z,42.805,6.029,13.2979,4.59979,2470.171,2020-9-19T13:25:45Z
2020-09-19T11:27:55Z,42.805,6.029,13.2978,4.59981,2470.133,2020-9-19T13:28:47Z
2020-09-19T11:31:00Z,42.805,6.029,13.2982,4.59981,2470.147,2020-9-19T13:31:52Z
2020-09-19T11:34:04Z,42.805,6.029,13.2979,4.59982,2470.11,2020-9-19T13:34:56Z
2020-09-19T11:37:08Z,42.805,6.029,13.2981,4.59983,2470.147,2020-9-19T13:38:00Z
2020-09-19T11:40:10Z,42.805,6.029,13.2980,4.59980,2470.147,2020-9-19T13:41:02Z
2020-09-19T11:43:15Z,42.805,6.029,13.2977,4.59981,2470.156,2020-9-19T13:44:07Z
2020-09-19T11:46:16Z,42.805,6.029,13.2982,4.59983,2470.133,2020-9-19T13:47:08Z
2020-09-19T11:49:20Z,42.805,6.029,13.2981,4.59979,2470.11,2020-9-19T13:50:12Z
2020-09-19T11:52:22Z,42.805,6.029,13.2976,4.59985,2470.1,2020-9-19T13:53:14Z
2020-09-19T11:55:27Z,42.805,6.029,13.2982,4.59980,2470.087,2020-9-19T13:56:19Z
2020-09-19T11:58:29Z,42.805,6.029,13.2980,4.59982,2470.1,2020-9-19T13:59:21Z
2020-09-19T12:01:30Z,42.805,6.029,13.2976,4.59981,2470.133,2020-9-19T14:02:22Z
2020-09-19T12:04:32Z,42.805,6.029,13.2977,4.59981,2470.1,2020-9-19T14:05:24Z
2020-09-19T12:07:37Z,42.805,6.029,13.2976,4.59983,2470.147,2020-9-19T14:08:29Z
2020-09-19T12:10:39Z,42.805,6.029,13.2976,4.59982,2470.11,2020-9-19T14:11:31Z
2020-09-19T12:13:41Z,42.805,6.029,13.2979,4.59981,2470.1,2020-9-19T14:14:33Z
2020-09-19T12:16:45Z,42.805,6.029,13.2976,4.59983,2470.087,2020-9-19T14:17:36Z
2020-09-19T12:19:49Z,42.805,6.029,13.2983,4.59980,2470.11,2020-9-19T14:20:41Z
2020-09-19T12:22:52Z,42.805,6.029,13.2979,4.59980,2470.063,2020-9-19T14:23:44Z
2020-09-19T12:25:54Z,42.805,6.029,13.2976,4.59982,2470.1,2020-9-19T14:26:46Z
2020-09-19T12:28:57Z,42.805,6.029,13.2981,4.59983,2470.11,2020-9-19T14:29:49Z
2020-09-19T12:32:02Z,42.805,6.029,13.2979,4.59981,2470.1,2020-9-19T14:32:54Z
2020-09-19T12:35:06Z,42.805,6.029,13.2982,4.59980,2470.087,2020-9-19T14:35:58Z
2020-09-19T12:38:10Z,42.805,6.029,13.2979,4.59981,2470.1,2020-9-19T14:39:02Z
2020-09-19T12:41:13Z,42.805,6.029,13.2982,4.59981,2470.087,2020-9-19T14:42:05Z
2020-09-19T12:44:16Z,42.805,6.029,13.2976,4.59980,2470.063,2020-9-19T14:45:08Z
2020-09-19T12:47:19Z,42.805,6.029,13.2981,4.59980,2470.087,2020-9-19T14:48:11Z
2020-09-19T12:50:22Z,42.805,6.029,13.2982,4.59980,2470.077,2020-9-19T14:51:14Z
2020-09-19T12:53:27Z,42.805,6.029,13.2983,4.59980,2470.04,2020-9-19T14:54:19Z
2020-09-19T12:56:30Z,42.805,6.029,13.2978,4.59981,2470.124,2020-9-19T14:57:22Z
2020-09-19T12:59:32Z,42.805,6.029,13.2976,4.59981,2470.04,2020-9-19T15:00:24Z
2020-09-19T13:02:34Z,42.805,6.029,13.2980,4.59981,2470.063,2020-9-19T15:03:26Z
2020-09-19T13:05:38Z,42.805,6.029,13.2982,4.59979,2470.03,2020-9-19T15:06:30Z
2020-09-19T13:08:43Z,42.805,6.029,13.2977,4.59980,2470.04,2020-9-19T15:09:35Z
2020-09-19T13:11:46Z,42.805,6.029,13.2979,4.59982,2470.03,2020-9-19T15:12:38Z
2020-09-19T13:14:47Z,42.805,6.029,13.2979,4.59982,2470.063,2020-9-19T15:15:39Z
2020-09-19T13:17:51Z,42.805,6.029,13.2979,4.59980,2470.049,2020-9-19T15:18:43Z
2020-09-19T13:20:55Z,42.805,6.029,13.2979,4.59980,2470.063,2020-9-19T15:21:47Z
2020-09-19T13:23:59Z,42.805,6.029,13.2976,4.59980,2470.03,2020-9-19T15:24:51Z
2020-09-19T13:27:01Z,42.805,6.029,13.2976,4.59980,2470.053,2020-9-19T15:27:53Z
2020-09-19T13:30:05Z,42.805,6.029,13.2982,4.59981,2470.04,2020-9-19T15:30:57Z
2020-09-19T13:33:06Z,42.805,6.029,13.2974,4.59981,2470.03,2020-9-19T15:33:58Z
2020-09-19T13:36:10Z,42.805,6.029,13.2978,4.59979,2470.053,2020-9-19T15:37:02Z
2020-09-19T13:39:14Z,42.805,6.029,13.2979,4.59983,2470.04,2020-9-19T15:40:06Z
2020-09-19T13:42:17Z,42.805,6.029,13.2978,4.59981,2470.03,2020-9-19T15:43:09Z
2020-09-19T13:45:21Z,42.805,6.029,13.2977,4.59979,2470.063,2020-9-19T15:46:13Z
2020-09-19T13:48:24Z,42.805,6.029,13.2982,4.59979,2470.04,2020-9-19T15:49:16Z
2020-09-19T13:51:28Z,42.805,6.029,13.2983,4.59979,2470.04,2020-9-19T15:52:20Z
2020-09-19T13:54:32Z,42.805,6.029,13.2979,4.59978,2470.03,2020-9-19T15:55:24Z
2020-09-19T13:57:35Z,42.805,6.029,13.2979,4.59979,2470.017,2020-9-19T15:58:27Z
2020-09-19T14:00:37Z,42.805,6.029,13.2982,4.59978,2470.017,2020-9-19T16:01:29Z
2020-09-19T14:03:41Z,42.805,6.029,13.2979,4.59980,2470.03,2020-9-19T16:04:33Z
2020-09-19T14:06:44Z,42.805,6.029,13.2979,4.59979,2470.03,2020-9-19T16:07:36Z
2020-09-19T14:09:47Z,42.805,6.029,13.2978,4.59978,2470.03,2020-9-19T16:10:39Z
2020-09-19T14:12:52Z,42.805,6.029,13.2981,4.59979,2470.04,2020-9-19T16:13:44Z
2020-09-19T14:15:55Z,42.805,6.029,13.2978,4.59980,2470.04,2020-9-19T16:16:47Z
2020-09-19T14:18:59Z,42.805,6.029,13.2979,4.59980,2470.007,2020-9-19T16:19:51Z
2020-09-19T14:22:00Z,42.805,6.029,13.2979,4.59980,2470.04,2020-9-19T16:22:52Z
2020-09-19T14:25:04Z,42.805,6.029,13.2979,4.59982,2470.03,2020-9-19T16:25:56Z
2020-09-19T14:28:07Z,42.805,6.029,13.2979,4.59978,2470.03,2020-9-19T16:28:59Z
2020-09-19T14:31:10Z,42.805,6.029,13.2976,4.59981,2470.03,2020-9-19T16:32:02Z
2020-09-19T14:34:11Z,42.805,6.029,13.2979,4.59978,2470.04,2020-9-19T16:35:03Z
2020-09-19T14:37:12Z,42.805,6.029,13.2977,4.59981,2470.04,2020-9-19T16:38:04Z
2020-09-19T14:40:15Z,42.805,6.029,13.2979,4.59983,2470.017,2020-9-19T16:41:07Z
2020-09-19T14:43:19Z,42.805,6.029,13.2979,4.59978,2470.017,2020-9-19T16:44:11Z
2020-09-19T14:46:22Z,42.805,6.029,13.2979,4.59978,2469.993,2020-9-19T16:47:14Z
2020-09-19T14:49:25Z,42.805,6.029,13.2980,4.59979,2470.03,2020-9-19T16:50:17Z
2020-09-19T14:52:26Z,42.805,6.029,13.2979,4.59982,2470.017,2020-9-19T16:53:18Z
2020-09-19T14:55:30Z,42.805,6.029,13.2982,4.59978,2470.053,2020-9-19T16:56:22Z
2020-09-19T14:58:33Z,42.805,6.029,13.2980,4.59978,2470.017,2020-9-19T16:59:25Z
2020-09-19T15:01:36Z,42.805,6.029,13.2979,4.59979,2469.993,2020-9-19T17:02:28Z
2020-09-19T15:04:41Z,42.805,6.029,13.2982,4.59978,2469.993,2020-9-19T17:05:33Z
2020-09-19T15:07:42Z,42.805,6.029,13.2981,4.59979,2470.017,2020-9-19T17:08:34Z
2020-09-19T15:10:46Z,42.805,6.029,13.2980,4.59978,2469.993,2020-9-19T17:11:38Z
2020-09-19T15:13:48Z,42.805,6.029,13.2977,4.59978,2470.03,2020-9-19T17:14:40Z